IRIDIUM 106 1 41917U 17003A 25312.55719970 .00000106 00000+0 30750-4 0 9994 2 41917 86.4015 180.7226 0001620 86.4417 273.6964 14.34218595461586 IRIDIUM 103 1 41918U 17003B 25312.61428337 .00000205 00000+0 66115-4 0 9990 2 41918 86.4016 180.5994 0002063 72.0286 288.1135 14.34218899461617 IRIDIUM 109 1 41919U 17003C 25312.62062734 .00000047 00000+0 95972-5 0 9995 2 41919 86.4016 180.6524 0002145 81.2224 278.9215 14.34218033461585 IRIDIUM 102 1 41920U 17003D 25312.86798829 .00000059 00000+0 14079-4 0 9995 2 41920 86.4013 180.4774 0002172 87.4418 272.7026 14.34218181461702 IRIDIUM 105 1 41921U 17003E 25312.55964834 .00000133 00000+0 40261-4 0 9998 2 41921 86.3975 149.1100 0002075 83.4567 276.6865 14.34217530463519 IRIDIUM 104 1 41922U 17003F 25312.60159918 .00000244 00000+0 80190-4 0 9992 2 41922 86.4015 180.6280 0002393 79.2982 280.8483 14.34218937461650 IRIDIUM 114 1 41923U 17003G 25312.60793860 .00000333 00000+0 11200-3 0 9997 2 41923 86.4012 180.6096 0002139 79.0461 281.0976 14.34215698461630 IRIDIUM 108 1 41924U 17003H 25312.56646363 .00000124 00000+0 37044-4 0 9991 2 41924 86.3972 148.9994 0002116 92.7285 267.4153 14.34217860463483 IRIDIUM 112 1 41925U 17003J 25312.59525678 .00000093 00000+0 26088-4 0 9991 2 41925 86.4010 180.4671 0002238 83.7931 276.3520 14.34218555461650 IRIDIUM 111 1 41926U 17003K 25312.65233933 .00000325 00000+0 10887-3 0 9996 2 41926 86.4012 180.5086 0002059 84.7686 275.3744 14.34217814461646 IRIDIUM 113 1 42803U 17039A 25312.70207270 .00000586 00000+0 20220-3 0 9992 2 42803 86.3985 54.3185 0002075 91.2060 268.9374 14.34218654439582 IRIDIUM 123 1 42804U 17039B 25312.81331887 .00000196 00000+0 62880-4 0 9993 2 42804 86.3944 85.7626 0001803 89.3414 270.7989 14.34219135438368 IRIDIUM 120 1 42805U 17039C 25312.69573000 .00000414 00000+0 14079-3 0 9994 2 42805 86.3974 54.1323 0001813 102.9947 257.1451 14.34218609439572 IRIDIUM 115 1 42806U 17039D 25312.71583102 .00000633 00000+0 18224-3 0 9991 2 42806 86.4510 54.2223 0001498 95.6401 264.4970 14.43283190442468 IRIDIUM 118 1 42807U 17039E 25312.77526447 .00000167 00000+0 52744-4 0 9995 2 42807 86.3944 85.7776 0002228 89.8298 270.3154 14.34218899438359 IRIDIUM 117 1 42808U 17039F 25312.79428639 .00000065 00000+0 16305-4 0 9992 2 42808 86.3943 85.7293 0001807 87.7964 272.3439 14.34215076438387 IRIDIUM 126 1 42809U 17039G 25312.61035777 .00000189 00000+0 60272-4 0 9990 2 42809 86.3945 85.8538 0002126 87.9293 272.2146 14.34218706438337 IRIDIUM 124 1 42810U 17039H 25312.58032134 .00000514 00000+0 14678-3 0 9992 2 42810 86.4536 22.5850 0001821 87.4026 272.7384 14.43278506443295 IRIDIUM 128 1 42811U 17039J 25312.74063566 .00000070 00000+0 17791-4 0 9991 2 42811 86.3936 117.3338 0001698 97.0173 263.1216 14.34220293438387 IRIDIUM 121 1 42812U 17039K 25312.83869044 .00000162 00000+0 50759-4 0 9990 2 42812 86.3945 85.7845 0002091 96.5987 263.5447 14.34218778438244 IRIDIUM 133 1 42955U 17061A 25312.49327110 -.00000027 00000+0 -16611-4 0 9999 2 42955 86.3942 117.5499 0001882 91.1313 269.0099 14.34217673423149 IRIDIUM 100 1 42956U 17061B 25312.69623306 .00000063 00000+0 15530-4 0 9995 2 42956 86.3938 117.3887 0001958 86.7990 273.3429 14.34218046423172 IRIDIUM 122 1 42957U 17061C 25312.45521547 .00000056 00000+0 13031-4 0 9990 2 42957 86.3936 117.4890 0001990 87.6675 272.4748 14.34218007423140 IRIDIUM 129 1 42958U 17061D 25312.75966010 .00000070 00000+0 17937-4 0 9997 2 42958 86.3938 117.4264 0002453 88.3618 271.7859 14.34218031423207 IRIDIUM 119 1 42959U 17061E 25312.72794691 .00000018 00000+0 -47518-6 0 9992 2 42959 86.3942 117.4345 0002050 83.3660 276.7769 14.34217642423211 IRIDIUM 107 1 42960U 17061F 25312.74698736 .00000169 00000+0 53394-4 0 9992 2 42960 86.3941 117.4466 0001779 80.2828 279.8568 14.34218428423220 IRIDIUM 132 1 42961U 17061G 25312.47424193 .00000078 00000+0 20929-4 0 9994 2 42961 86.3939 117.5416 0001944 88.7438 271.3980 14.34218206423182 IRIDIUM 136 1 42962U 17061H 25312.50595550 .00000068 00000+0 17206-4 0 9998 2 42962 86.3938 117.5337 0002040 85.6169 274.5260 14.34218135423209 IRIDIUM 139 1 42963U 17061J 25312.44253015 .00000023 00000+0 12342-5 0 9997 2 42963 86.3940 117.6187 0001819 87.8531 272.2873 14.34217651423204 IRIDIUM 125 1 42964U 17061K 25312.49961303 .00000050 00000+0 10744-4 0 9992 2 42964 86.3942 117.6520 0002008 74.3020 285.8397 14.34217997423229 IRIDIUM 135 1 43070U 17083A 25312.68304572 .00000143 00000+0 44146-4 0 9991 2 43070 86.3979 54.1772 0002127 100.2454 259.8982 14.34218421412541 IRIDIUM 138 1 43071U 17083B 25312.70841691 .00000095 00000+0 26847-4 0 9997 2 43071 86.3993 53.8279 0002337 87.4855 272.6608 14.34218214412537 IRIDIUM 116 1 43072U 17083C 25312.67670132 .00000310 00000+0 10347-3 0 9991 2 43072 86.3980 54.1685 0001988 104.8865 255.2551 14.34219102412569 IRIDIUM 130 1 43073U 17083D 25312.71475738 .00000755 00000+0 26241-3 0 9995 2 43073 86.3988 54.4066 0001730 96.9367 263.2025 14.34218606412515 IRIDIUM 151 1 43074U 17083E 25312.75914778 .00000486 00000+0 16648-3 0 9993 2 43074 86.3981 54.1870 0002011 100.2984 259.8439 14.34222850412545 IRIDIUM 134 1 43075U 17083F 25312.72744243 .00000264 00000+0 87038-4 0 9995 2 43075 86.3983 54.2055 0001820 95.3866 264.7537 14.34219390412509 IRIDIUM 137 1 43076U 17083G 25312.74012796 .00000247 00000+0 81120-4 0 9996 2 43076 86.3983 54.2883 0002267 110.0882 250.0558 14.34218231412579 IRIDIUM 141 1 43077U 17083H 25312.73378778 .00000427 00000+0 14552-3 0 9995 2 43077 86.3987 54.1318 0002415 90.8435 269.3037 14.34214127412575 IRIDIUM 153 1 43078U 17083J 25312.61619698 .00000057 00000+0 13467-4 0 9996 2 43078 86.4006 22.6723 0002304 87.0068 273.1391 14.34218183413669 IRIDIUM 131 1 43079U 17083K 25312.72110102 .00000123 00000+0 36807-4 0 9992 2 43079 86.3984 54.3107 0002155 95.1819 264.9622 14.34218496412504 IRIDIUM 144 1 43249U 18030A 25312.62253897 -.00000029 00000+0 -17580-4 0 9996 2 43249 86.4001 22.6037 0001941 99.0836 261.0580 14.34217850398527 IRIDIUM 149 1 43250U 18030B 25312.62888161 .00000121 00000+0 36274-4 0 9998 2 43250 86.4002 22.5709 0002024 96.1166 264.0260 14.34218342398549 IRIDIUM 157 1 43251U 18030C 25312.71767874 .00000204 00000+0 65643-4 0 9990 2 43251 86.4004 22.5819 0002339 99.1017 261.0443 14.34217814398533 IRIDIUM 140 1 43252U 18030D 25312.66693696 .00000109 00000+0 31903-4 0 9991 2 43252 86.4005 22.6163 0001981 95.2548 264.8873 14.34218323398585 IRIDIUM 145 1 43253U 18030E 25312.65425126 .00000088 00000+0 24422-4 0 9996 2 43253 86.4004 22.5943 0001868 101.7064 258.4342 14.34218317398516 IRIDIUM 146 1 43254U 18030F 25312.63522385 .00000119 00000+0 35542-4 0 9990 2 43254 86.4004 22.6152 0002033 100.5307 259.6118 14.34218485398523 IRIDIUM 148 1 43255U 18030G 25312.60351154 .00000132 00000+0 40019-4 0 9992 2 43255 86.4007 22.6682 0002229 99.4880 260.6568 14.34218378398559 IRIDIUM 142 1 43256U 18030H 25312.64156551 .00000380 00000+0 12870-3 0 9999 2 43256 86.4005 22.5499 0001805 104.4269 255.7127 14.34217453398526 IRIDIUM 150 1 43257U 18030J 25312.60985332 .00000180 00000+0 57083-4 0 9997 2 43257 86.4006 22.6715 0001895 96.9553 263.1858 14.34217692398541 IRIDIUM 143 1 43258U 18030K 25312.59082494 .00000145 00000+0 44744-4 0 9994 2 43258 86.4008 22.7635 0001903 102.3060 257.8349 14.34218864398470 IRIDIUM 161 1 43478U 18047C 25312.62760968 .00000575 00000+0 16499-3 0 9991 2 43478 86.4536 180.6214 0002248 83.2884 276.8573 14.43286942393322 IRIDIUM 152 1 43479U 18047D 25312.63331219 .00000095 00000+0 26848-4 0 9993 2 43479 86.4011 180.4795 0002145 81.9508 278.1931 14.34218471390879 IRIDIUM 147 1 43480U 18047E 25312.56988645 -.00000043 00000+0 -22552-4 0 9991 2 43480 86.4014 180.5071 0002062 86.8106 273.3325 14.34217690390863 IRIDIUM 110 1 43481U 18047F 25312.57622969 -.00000004 00000+0 -86056-5 0 9994 2 43481 86.4015 180.5902 0002433 79.8181 280.3289 14.34217977390859 IRIDIUM 162 1 43482U 18047G 25312.62129250 .00000595 00000+0 17096-3 0 9995 2 43482 86.4535 180.5178 0002082 77.9275 282.2159 14.43281352393314 IRIDIUM 160 1 43569U 18061A 25312.52206588 .00000315 00000+0 10548-3 0 9991 2 43569 86.3963 149.0468 0002634 93.3425 266.8072 14.34220315381746 IRIDIUM 166 1 43570U 18061B 25312.47766691 .00000006 00000+0 -49684-5 0 9996 2 43570 86.3978 149.0191 0001846 92.6735 267.4672 14.34217509381763 IRIDIUM 158 1 43571U 18061C 25312.51572404 .00000083 00000+0 22527-4 0 9999 2 43571 86.3974 149.0134 0002018 80.5747 279.5676 14.34219174381733 IRIDIUM 165 1 43572U 18061D 25312.47132631 .00000137 00000+0 41717-4 0 9991 2 43572 86.3973 149.0737 0002038 91.1606 268.9823 14.34217779381753 IRIDIUM 155 1 43573U 18061E 25312.78210166 .00000122 00000+0 36519-4 0 9994 2 43573 86.3970 148.8241 0001834 84.5952 275.5453 14.34217405381761 IRIDIUM 154 1 43574U 18061F 25312.48400985 .00000006 00000+0 -48853-5 0 9999 2 43574 86.3979 149.0709 0001987 88.3204 271.8219 14.34217570381777 IRIDIUM 163 1 43575U 18061G 25312.25567655 .00000029 00000+0 32051-5 0 9990 2 43575 86.3970 149.0890 0002179 84.5824 275.5621 14.34217539381717 IRIDIUM 156 1 43576U 18061H 25312.78845315 .00000041 00000+0 76990-5 0 9995 2 43576 86.3971 148.8734 0001787 87.3876 272.7524 14.34217920381787 IRIDIUM 164 1 43577U 18061J 25312.56012162 -.00000034 00000+0 -19051-4 0 9996 2 43577 86.3975 149.0053 0001931 93.9978 266.1439 14.34217069381793 IRIDIUM 159 1 43578U 18061K 25312.45863876 -.00000043 00000+0 -22288-4 0 9997 2 43578 86.3977 148.9893 0002119 87.8554 272.2885 14.34217314381748 IRIDIUM 180 1 43922U 19002A 25312.80697772 .00000180 00000+0 57322-4 0 9992 2 43922 86.3942 85.7272 0002188 89.4207 270.7239 14.34218582357401 IRIDIUM 176 1 43923U 19002B 25312.46784503 .00001767 00000+0 27626-3 0 9999 2 43923 86.6071 85.8448 0001694 83.1525 276.9884 14.72255787366773 IRIDIUM 168 1 43924U 19002C 25312.80063512 .00000122 00000+0 36565-4 0 9995 2 43924 86.3946 85.8011 0002096 91.4471 268.6965 14.34218472357380 IRIDIUM 173 1 43925U 19002D 25312.78795014 .00000119 00000+0 35307-4 0 9991 2 43925 86.3941 85.7041 0002081 88.1992 271.9442 14.34218339357360 IRIDIUM 169 1 43926U 19002E 25312.76045057 .00000181 00000+0 52741-4 0 9995 2 43926 86.4196 117.3666 0001524 53.6404 306.4934 14.38608995358530 IRIDIUM 172 1 43927U 19002F 25312.78160693 .00000464 00000+0 15852-3 0 9997 2 43927 86.3935 85.7136 0002242 89.0133 271.1319 14.34217424357376 IRIDIUM 175 1 43928U 19002G 25312.66696042 .00001327 00000+0 20649-3 0 9996 2 43928 86.1531 30.0854 0001911 112.8682 247.2736 14.72246634366793 IRIDIUM 171 1 43929U 19002H 25312.83234760 .00000177 00000+0 56242-4 0 9992 2 43929 86.3955 85.9751 0001898 99.3946 260.7465 14.34218907357370 IRIDIUM 170 1 43930U 19002J 25312.81385948 .00001712 00000+0 26752-3 0 9995 2 43930 86.6068 85.7037 0002260 90.7848 269.3628 14.72255915366834 IRIDIUM 167 1 43931U 19002K 25312.82600380 .00000162 00000+0 50733-4 0 9992 2 43931 86.3942 85.7160 0001647 98.6243 261.5139 14.34218896357379 IRIDIUM 181 1 56726U 23068S 25312.50034856 .00000424 00000+0 12003-3 0 9997 2 56726 86.4509 149.0268 0002281 101.3875 258.7582 14.43315309130608 IRIDIUM 177 1 56727U 23068T 25312.80613633 .00002449 00000+0 31885-3 0 9995 2 56727 86.1961 73.4428 0002159 86.9976 273.1492 14.80223170133766 IRIDIUM 174 1 56728U 23068U 25312.80150330 .00001939 00000+0 30362-3 0 9998 2 56728 86.6075 85.8340 0002401 84.7408 275.4083 14.72245560133594 IRIDIUM 178 1 56729U 23068V 25312.72763500 .00000826 00000+0 10526-3 0 9993 2 56729 86.6506 117.5119 0001970 92.1345 268.0102 14.80231932133759 IRIDIUM 179 1 56730U 23068W 25312.72225936 .00001401 00000+0 18101-3 0 9998 2 56730 86.6763 125.8333 0001817 96.9439 263.1990 14.80235333133752